sat.trackr.live / text

‹ back to catalog

STARLINK-32760

NORAD 62568 · 2025-006Q

PAYLOAD ACTIVE UNKNOWN

§ Identity

Operator
Country
US
Launch date
2025-01-10
Launch site
AFETR
Launch vehicle
Mass (kg)
RCS (m²)

Purposes: comms

External: N2YO · Heavens-Above · Gunter

§ Orbital elements

Epoch: 2026-09-21T08:15:22.908096Z

Period
94.27 min
Inclination
43.0027°
Eccentricity
0.0001479
Mean motion
15.27585032 rev/d
Perigee alt
482.0 km
Apogee alt
484.0 km
Semi-major
6,861.2 km
B*
4.9927e-4
RAAN
267.7693°
Arg perigee
272.6616°
Mean anomaly
87.4066°
Rev number
9,478

§ Raw data

STARLINK-327601 62568U 25006Q   26264.34401514  .00013504  00000+0  49927-3 0  99982 62568  43.0027 267.7693 0001479 272.6616  87.4066 15.27585032 94783

JSON: /api/v1/satellites/62568 · /tle

For live sub-satellite position, see the globe view (requires WebGL).

§ Visibility from observer

Set your observer location to see the next 7 days of passes ≥ 10°. The values pass through the URL so the page stays shareable.

No JS? Fill the form by hand. The geolocation button needs JavaScript.